Listen Live
Download Apps Download on the App Store Get it on Google Play
Home
News
Sports
Air Staff
Local Links
Contests
Calendar
Thursday, February 6th
Friday, February 07, 2014



    02/06/2014 00:00:12 3 4:59.0 15077-R5F1a- In The Meantime Spacehog
    02/06/2014 00:05:19 3 2:54.0 16279-R5F1c- Demons Imagine Dragons
    02/06/2014 00:08:12 3 4:50.0 14589-R5F1b- Epic Faith No More
    02/06/2014 00:13:05 3 3:02.8 15315-R5F1a- Breed Nirvana
    02/06/2014 00:20:15 3 4:10.0 14339-R5F1b- Rock You Like A Hurricane Scorpions
    02/06/2014 00:24:24 3 3:01.4 14553-R5F1c- What I Got Sublime
    02/06/2014 00:29:10 3 3:40.8 16065-R5F1b- Face to The Floor Chevelle
    02/06/2014 00:33:51 3 4:49.5 16253-R5F1a- I Am The Bullgod Kid Rock
    02/06/2014 00:38:51 3 4:40.0 14789-R5F1c- Dani California Red Hot Chili Peppers
    02/06/2014 00:43:37 3 3:02.5 16137-R5F1b- I Miss The Misery Halestorm
    02/06/2014 00:48:52 3 4:04.0 14345-R5F1b- Wicked Garden Stone Temple Pilots
    02/06/2014 00:52:54 3 3:02.0 14762-R5F1c- Numb Linkin Park
    02/06/2014 00:55:55 3 4:41.0 14314-R5F1a- Hot For Teacher Van Halen
    02/06/2014 01:00:46 3 3:53.4 14759-R5F1a- So Far Away Staind
    02/06/2014 01:04:39 3 3:52.0 16258-R5F1c- Lola Montez Volbeat
    02/06/2014 01:08:26 3 4:58.0 15303-R5F1b- What It's Like Everlast
    02/06/2014 01:13:28 3 3:27.0 14373-R5F1a- Highway To Hell AC/DC
    02/06/2014 01:19:00 3 3:12.0 15346-R5F1a- Porn Star Dancing My Darkest Days Feat. Zakk
    02/06/2014 01:22:14 3 5:07.0 14636-R5F1c- Turn The Page Metallica
    02/06/2014 01:27:18 3 3:22.1 14499-R5F1a- (You Gotta) Fight For Your Beastie Boys
    02/06/2014 01:30:35 3 2:39.9 16228-R5F1b- Misery Loves Company Three Days Grace
    02/06/2014 01:34:19 3 3:52.0 16148-R5F1a- Why I'm Here Oleander
    02/06/2014 01:38:18 3 4:18.0 14723-R5F1c- Killing In The Name Rage Against The Machine
    02/06/2014 01:42:38 3 3:51.1 16164-R5F1b- Stand Up (Stand Up) All That Remains
    02/06/2014 01:48:37 3 3:36.0 14279-R5F1b- Come As You Are Nirvana
    02/06/2014 01:52:11 3 3:51.9 14778-R5F1c- Holiday Green Day
    02/06/2014 01:56:00 3 4:05.5 14356-R5F1a- Wanted Dead Or Alive Bon Jovi
    02/06/2014 02:00:09 3 3:26.4 16011-R5F1a- Scars Papa Roach
    02/06/2014 02:03:41 3 3:34.9 16257-R5F1c- Never Never Korn
    02/06/2014 02:07:12 3 4:13.0 14659-R5F1b- Otherside Red Hot Chili Peppers
    02/06/2014 02:11:30 3 5:50.0 14273-R5F1a- No More Tears Osbourne, Ozzy
    02/06/2014 02:21:25 3 4:22.0 15166-R5F1b- Space Lord Monster Magnet BMI
    02/06/2014 02:25:43 3 3:11.0 14405-R5F1c- Interstate Love Song Stone Temple Pilots
    02/06/2014 02:29:51 3 3:05.6 16188-R5F1b- Radioactive Imagine Dragons
    02/06/2014 02:34:00 3 3:16.0 14494-R5F1a- Youth Gone Wild Skid Row
    02/06/2014 02:37:20 3 3:46.0 14677-R5F1c- Control Puddle Of Mudd
    02/06/2014 02:41:10 3 5:04.3 15095-R5F1b- Uprising Muse The Resistance 46.5
    02/06/2014 02:48:19 3 3:49.0 14726-R5F1b- Times Like These Foo Fighters
    02/06/2014 02:52:05 3 4:12.0 14445-R5F1c- 1979 Smashing Pumpkins
    02/06/2014 02:56:15 3 4:29.0 14302-R5F1a- Sweet Emotion Aerosmith
    02/06/2014 03:00:53 3 3:35.6 15195-R5F1a- Flagpole Sitta Harvey Danger
    02/06/2014 03:04:33 3 5:37.1 16266-R5F1c- Sirens Pearl Jam
    02/06/2014 03:10:06 3 4:04.9 14439-R5F1b- Comedown Bush
    02/06/2014 03:14:10 3 3:42.0 14131-R5F1a- Nothin' But A Good Time Poison
    02/06/2014 03:21:59 3 2:56.4 15392-R5F1b- When Worlds Collide Powerman 5000
    02/06/2014 03:24:54 3 4:37.0 14406-R5F1c- Fell On Black Days Soundgarden
    02/06/2014 03:29:28 3 3:52.1 16021-R5F1a- Sail Awolnation
    02/06/2014 03:34:23 3 3:47.0 14331-R5F1a- Dirty Deeds Done Dirt Cheap AC/DC
    02/06/2014 03:38:16 3 2:12.0 14432-R5F1c- She Green Day
    02/06/2014 03:40:37 3 3:59.2 16086-R5F1b- Bully Shinedown
    02/06/2014 03:46:44 3 3:52.0 14658-R5F1b- Kryptonite 3 Doors Down
    02/06/2014 03:50:33 3 2:38.8 14420-R5F1c- Buddy Holly Weezer
    02/06/2014 03:53:10 3 3:48.0 16009-R5F1a- Send the Pain Below Chevelle
    02/06/2014 03:56:54 3 3:42.5 14552-R5F1b- Bound For The Floor Local H
    02/06/2014 04:00:48 3 3:11.0 15058-R5F1a- The Impression That I Get Mighty Mighty Bosstones
    02/06/2014 04:04:04 3 4:24.2 16272-R5F1c- Shepherd Of Fire Avenged Sevenfold
    02/06/2014 04:08:24 3 4:27.0 14743-R5F1b- Closer Nine Inch Nails
    02/06/2014 04:12:56 3 2:28.0 14520-R5F1a- I Wanna Be Sedated Ramones
    02/06/2014 04:19:32 3 3:46.0 15080-R5F1b- Save Yourself Stabbing Westward
    02/06/2014 04:23:16 3 4:48.0 14346-R5F1c- Soul To Squeeze Red Hot Chili Peppers
    02/06/2014 04:29:29 3 3:00.6 16158-R5F1b- Chalk Outline Three Days Grace
    02/06/2014 04:33:36 3 5:29.0 14265-R5F1a- She Talks To Angels Black Crowes
    02/06/2014 04:39:08 3 3:26.0 15185-R5F1c- Smooth Criminal Alien Ant Farm
    02/06/2014 04:42:35 3 3:46.1 15364-R5F1b- Country Song Seether
    02/06/2014 04:48:30 3 4:04.5 14650-R5F1b- Cowboy Kid Rock
    02/06/2014 04:52:32 3 4:01.0 14300-R5F1c- Hunger Strike Temple Of The Dog
    02/06/2014 04:56:30 3 3:48.0 14877-R5F1a- Inside The Fire Disturbed
    02/06/2014 05:03:36 3 2:54.0 16279-R5F1b- Demons Imagine Dragons
    02/06/2014 05:06:29 3 3:48.0 14365-R5F1b- All Apologies Nirvana
    02/06/2014 05:10:17 3 6:17.0 14793-R5F1a- The Pot Tool
    02/06/2014 05:21:28 3 4:36.1 14514-R5F1c- Wild Side Motley Crue
    02/06/2014 05:25:58 3 3:34.0 14399-R5F1b- Daughter Pearl Jam
    02/06/2014 05:29:28 3 3:46.2 16099-R5F1c- Gold On The Ceiling Black Keys
    02/06/2014 05:37:45 3 3:25.0 14803-R5F1b- Paralyzer Finger Eleven
    02/06/2014 05:41:13 3 3:05.0 14981-R5F1a- You're Going Down Sick Puppies
    02/06/2014 05:47:15 3 3:50.6 15358-R5F1b- Renegades of Funk Rage Against the Machine Renegades
    02/06/2014 05:51:00 3 3:32.5 16283-R5??c- Asleep At The Wheel Band Of Skulls
    02/06/2014 05:54:28 3 5:33.0 14219-R5??a- Trampled Under Foot Led Zeppelin
    02/06/2014 06:03:18 3 3:52.0 16258-R5F1b- Lola Montez Volbeat
    02/06/2014 06:07:05 3 5:18.0 14397-R5F1b- Black Hole Sun Soundgarden
    02/06/2014 06:12:28 3 3:11.4 14768-R5F1a- Cold Crossfade
    02/06/2014 06:20:13 3 2:26.2 15211-R5F1c- What's My Age Again ? Blink-182
    02/06/2014 06:22:34 3 5:22.6 14270-R5F1b- Enter Sandman Metallica
    02/06/2014 06:29:37 3 2:54.0 14970-R5F1a- Ain't No Rest For The Wicke Cage The Elephant
    02/06/2014 06:36:47 3 3:16.9 16259-R5F1b- Deal With the Devil Pop Evil
    02/06/2014 06:42:11 3 5:05.0 14282-R5F1b- Even Flow Pearl Jam
    02/06/2014 06:47:14 3 3:46.2 16282-R5??c- It's About Time Young The Giant
    02/06/2014 06:50:56 3 4:37.0 14129-R5??a- Sunday Bloody Sunday U2
    02/06/2014 06:55:30 3 4:47.0 14471-R5??b- Jane Says Jane's Addiction

    The Haze

    7am
    Tired - Stone Sour
    Turbo Lover - Judas Priest
    Suck My Kiss - Red Hot Chili Peppers
    Working Man - Rush
    Up All Night - Slaughter
    Hail To the King - Avenged Sevenfold
    You Shook Me All Night Long - AC/DC
    The Sound Of Winter - Bush
    In Bloom - Nirvana
    I Love Rock and Roll - Joan Jett and the Blackhearts
    Mississippi Queen - Mountain

    8am
    Sirens - Pearl Jam
    Man In The Box - Alice In Chains
    Looks That Kill - Motley Crue
    Head Like A Hole - Nine Inch Nails
    Killer Queen - Queen
    The Hangman's Body Count - Volbeat
    Fast As A Shark - Accept
    The Distance - Cake
    There's No Going Back - Sick Puppies
    The Wind Cries Mary - Jimi Hendrix
    What If I Was Nothing - All That Remains
    Best Of You - Foo Fighters

    9am
    Come A Litte Closer - Cage The Elephant
    Sad But True - Metallica
    Some Kind Of Wonderful - Grand Funk Railroad
    Psycho - Puddle Of Mudd
    Knockin' On Heaven's Door - GNR
    Lonely Boy - Black Keys
    Easy Livin' - Uriah Heep
    Lies Of the Beautiful People - Sixx AM
    Street Of Dreams - Rainbow
    Adrenaline - Shinedown
    Mother - Danzig

    10 am Paul Dickinson

    Have A Drink On Me - AC/DC
    Just Like You - 3 Days Grace
    Demons - Imagine Dragons
    Fire Woman - The Cult
    Bulls On Parade - Rage Against The Machine
    All Who Remain - Beware Of Darkness
    Burn It Down - Linkin Park
    Top Of The World - Van Halen
    Losing My Religion - R.E.M.
    I Like To Rock - April Wine
    Closing Time - Semisonic
    Mr. Brightside - The Killers

    11 am

    Voices - Alice In Chains
    Bark At The Moon - Ozzy Osbourne
    Possum Kingdom - Toadies
    The Kid's Aren't Alright - The Offspring
    Good Man - Devour The Day
    Mind Your Manners - Pearl Jam
    My Hero - Foo Fighters
    Bottoms Up - Nickelback
    What Do You Say - Filter
    Run Runaway - Slade
    Shattered - The Rolling Stones

    12 pm

    Like A Stone - Audioslave
    Shepherd Of Fire - Avenged Sevenfold
    Hard To Handle - The Black Crowes
    I Will Not Bow - Breaking Benjamin
    Nothing Else Matters - Metallica
    Heavy Bells - J Roddy Walston & The Business
    Moneytalks - AC/DC
    Sabotage - Beastie Boys
    Ready For Love - Bad Company
    Walkin' Shoes - Kyle Henderson
    Misery Loves Company - 3 Days Grace
    Face Down - Red Jumpsuit Apparatus
    Pork And Beans - Weezer

    1 pm

    Flying High Again - Ozzy Osbourne
    My Own Prison - Creed
    Bones - Young Guns
    Welcome To The Jungle - Guns N Roses
    Asleep At The Wheel - Band Of Skulls
    Radioactive - Imagine Dragons
    Trenches - Pop Evil
    Mountain Man - Crash Kings
    Fade - Staind
    Shout - Tears For Fears
    Desperately Wanting - Better Than Ezra


    02/06/2014 14:04:29 3 3:47.2 16242-R5F1b- Come A Little Closer Cage The Elephant
    02/06/2014 14:08:21 3 3:22.1 15396-R5F1b- Bodies Drowning Pool
    02/06/2014 14:11:42 3 4:13.0 14374-R5F1a- No Excuses Alice In Chains
    02/06/2014 14:20:36 3 5:35.8 15393-R5F1c- No Leaf Clover Metallica
    02/06/2014 14:26:06 3 2:00.0 14574-R5F1b- Song 2 Blur
    02/06/2014 14:28:05 3 3:40.8 16065-R5F1c- Face to The Floor Chevelle
    02/06/2014 14:36:07 3 5:10.0 14461-R5F1b- Dead & Bloated Stone Temple Pilots
    02/06/2014 14:41:30 3 4:01.9 15335-R5F1a- Say You'll Haunt Me Stone Sour
    02/06/2014 14:47:59 3 3:22.5 15061-R5F1b- Alive P.O.D. Satellite
    02/06/2014 14:51:20 3 4:37.8 16273-R5F1c- Romantic Dreams Deftones
    02/06/2014 14:55:53 3 4:31.0 14567-R5F1a- Tom Sawyer Rush
    02/06/2014 15:03:42 3 3:52.0 16258-R5F1b- Lola Montez Volbeat
    02/06/2014 15:07:30 3 3:34.0 14344-R5F1b- No Rain Blind Melon
    02/06/2014 15:11:11 3 3:23.0 14454-R5F1a- Who Made Who AC/DC
    02/06/2014 15:18:50 3 4:13.0 14539-R5F1c- Tonight, Tonight Smashing Pumpkins
    02/06/2014 15:23:02 3 3:54.0 14728-R5F1b- Bring Me To Life Evanescence
    02/06/2014 15:28:01 3 3:52.1 16021-R5F1a- Sail Awolnation
    02/06/2014 15:36:21 3 4:49.0 14676-R5F1b- Outside Staind
    02/06/2014 15:41:10 3 4:00.3 16105-R5F1a- Hats Off To The Bull Chevelle
    02/06/2014 15:47:40 3 6:14.0 14318-R5F1b- Rooster Alice In Chains
    02/06/2014 15:53:49 3 4:50.0 14589-R5F1c- Epic Faith No More
    02/06/2014 15:58:36 3 3:05.9 15092-R5F1a- Break Three Days Grace
    02/06/2014 16:04:54 3 3:34.9 16257-R5F1b- Never Never Korn
    02/06/2014 16:08:26 3 3:44.1 14598-R5F1b- Gotta Get Away Offspring
    02/06/2014 16:12:06 3 4:03.0 15323-R5F1a- 45 Shinedown
    02/06/2014 16:21:07 3 5:30.0 14215-R5F1c- New Year's Day U2
    02/06/2014 16:26:35 3 4:15.0 14283-R5F1b- Lithium Nirvana
    02/06/2014 16:30:47 3 4:15.4 15371-R5F1c- Walk Foo Fighters
    02/06/2014 16:36:22 3 3:30.2 15309-R5F1a- Intergalactic Beastie Boys
    02/06/2014 16:40:02 3 4:14.0 14558-R5F1c- Machinehead Bush
    02/06/2014 16:44:19 3 3:51.1 16164-R5F1b- Stand Up (Stand Up) All That Remains
    02/06/2014 16:50:32 3 5:12.0 14460-R5F1b- Hells Bells AC/DC
    02/06/2014 16:55:42 3 4:13.0 14659-R5F1c- Otherside Red Hot Chili Peppers
    02/06/2014 17:00:04 3 3:19.8 15175-R5F1a- Stellar Incubus
    02/06/2014 17:03:28 3 5:37.1 16266-R5F1c- Sirens Pearl Jam
    02/06/2014 17:09:04 3 4:42.0 14716-R5F1a- Brainstew/Jaded Green Day
    02/06/2014 17:13:49 3 4:32.0 14341-R5F1c- Foolin' Def Leppard
    02/06/2014 17:23:14 3 3:14.0 15087-R5F1c- Beverly Hills Weezer
    02/06/2014 17:26:25 3 3:28.0 15412-R5F1b- Chop Suey! System Of A Down
    02/06/2014 17:31:01 3 4:02.8 16212-R5F1a- The Hangman's Body Count Volbeat
    02/06/2014 17:36:19 3 3:57.0 14257-R5F1a- The Other Side Aerosmith
    02/06/2014 17:40:18 3 3:53.0 14703-R5F1c- Creep Radiohead
    02/06/2014 17:44:11 3 3:02.5 16137-R5F1b- I Miss The Misery Halestorm
    02/06/2014 17:47:25 3 3:39.4 16264-R5F1a- Battle Born Five Finger Death Punch
    02/06/2014 17:51:04 3 4:58.0 15303-R5F1c- What It's Like Everlast
    02/06/2014 17:55:57 3 4:16.0 14742-R5F1a- You Candlebox
    02/06/2014 18:00:25 3 4:29.9 14452-R5F1a- Until It Sleeps Metallica
    02/06/2014 18:04:58 3 2:54.0 16279-R5F1c- Demons Imagine Dragons
    02/06/2014 18:07:54 3 5:52.0 14204-R5F1c- Sweet Child O' Mine Guns N' Roses
    02/06/2014 18:13:52 3 2:55.0 14638-R5F1b- Heavy Collective Soul
    02/06/2014 18:21:18 3 3:49.0 15325-R5F1c- So Cold Breaking Benjamin
    02/06/2014 18:25:04 3 3:43.0 14401-R5F1b- Longview Green Day Dookie 21.0
    02/06/2014 18:29:49 3 4:59.8 16238-R5F1a- Hail To The King Avenged Sevenfold
    02/06/2014 18:36:03 3 4:30.0 14648-R5F1a- One Creed
    02/06/2014 18:40:35 3 4:04.0 14345-R5F1c- Wicked Garden Stone Temple Pilots
    02/06/2014 18:44:42 3 3:05.0 14981-R5F1b- You're Going Down Sick Puppies
    02/06/2014 18:50:09 3 4:38.0 14347-R5F1b- Heart-Shaped Box Nirvana
    02/06/2014 18:54:45 3 3:46.0 14677-R5F1c- Control Puddle Of Mudd
    02/06/2014 18:58:29 3 4:24.0 14435-R5F1a- Tomorrow Silverchair
    02/06/2014 19:06:16 3 3:44.3 16262-R5F1b- Tired Stone Sour
    02/06/2014 19:09:55 3 2:48.0 14641-R5F1a- My Own Worst Enemy Lit
    02/06/2014 19:12:49 3 4:04.0 14881-R5F1c- Let It Die Foo Fighters
    02/06/2014 19:21:03 3 6:44.0 14462-R5F1b- Fade To Black Metallica
    02/06/2014 19:27:43 3 3:50.0 14414-R5F1c- I Alone Live
    02/06/2014 19:31:31 3 3:00.6 16158-R5F1a- Chalk Outline Three Days Grace
    02/06/2014 19:38:43 3 4:27.0 14743-R5F1b- Closer Nine Inch Nails
    02/06/2014 19:43:09 3 3:07.1 16161-R5F1a- Enemies Shinedown
    02/06/2014 19:48:25 3 3:52.0 14658-R5F1b- Kryptonite 3 Doors Down
    02/06/2014 19:52:14 3 4:00.3 14475-R5F1c- Back In Black AC/DC
    02/06/2014 19:56:09 3 2:43.9 16150-R5F1a- The Rock Show Blink 182
    02/06/2014 19:58:48 3 4:09.0 14795-R5F1b- Rockstar Nickelback
    02/06/2014 20:05:42 3 4:24.2 16272-R5F1b- Shepherd Of Fire Avenged Sevenfold
    02/06/2014 20:10:07 3 4:37.0 14406-R5F1b- Fell On Black Days Soundgarden
    02/06/2014 20:14:54 3 3:37.0 14632-R5F1a- Inside Out Eve 6
    02/06/2014 20:22:37 3 4:40.9 14597-R5F1b- Kickstart My Heart Motley Crue
    02/06/2014 20:27:17 3 3:48.0 14365-R5F1c- All Apologies Nirvana
    02/06/2014 20:31:02 3 3:46.2 16099-R5F1a- Gold On The Ceiling Black Keys
    02/06/2014 20:38:57 3 2:42.2 15322-R5F1b- Faint Linkin Park
    02/06/2014 20:41:42 3 3:57.3 16080-R5F1a- Satellite Rise Against
    02/06/2014 20:47:45 3 3:26.0 15185-R5F1b- Smooth Criminal Alien Ant Farm
    02/06/2014 20:51:09 3 3:25.0 14803-R5F1c- Paralyzer Finger Eleven
    02/06/2014 20:54:33 3 4:38.0 14732-R5F1a- Remedy Black Crowes
    02/06/2014 20:59:08 3 3:25.3 15306-R5F1b- For You Staind
    02/06/2014 21:05:49 3 3:52.0 16258-R5F1b- Lola Montez Volbeat
    02/06/2014 21:09:36 3 4:48.0 14346-R5F1a- Soul To Squeeze Red Hot Chili Peppers
    02/06/2014 21:14:25 3 4:19.0 14209-R5F1c- Runnin' Down A Dream Petty, Tom
    02/06/2014 21:22:53 3 5:03.0 14748-R5F1b- Whiskey In The Jar Metallica
    02/06/2014 21:27:54 3 4:12.0 14443-R5F1c- Glycerine Bush
    02/06/2014 21:33:56 3 2:54.0 14970-R5F1b- Ain't No Rest For The Wicke Cage The Elephant
    02/06/2014 21:41:06 3 3:19.0 14603-R5F1b- Today Smashing Pumpkins
    02/06/2014 21:44:33 3 3:28.3 16187-R5F1a- Freak Like Me Halestorm
    02/06/2014 21:50:09 3 3:36.0 14279-R5F1b- Come As You Are Nirvana
    02/06/2014 21:53:43 3 3:52.0 14715-R5F1c- Down With The Sickness Disturbed
    02/06/2014 21:57:34 3 2:58.0 14592-R5F1a- Live And Let Die Guns N' Roses
    02/06/2014 22:03:55 3 5:37.1 16266-R5F1b- Sirens Pearl Jam
    02/06/2014 22:09:30 3 2:15.0 14721-R5F1a- Wrong Way Sublime
    02/06/2014 22:11:50 3 3:53.0 14112-R5F1c- No One Like You Scorpions
    02/06/2014 22:17:47 3 4:31.5 16274-R5F1a- Do I Wanna Know Arctic Monkeys
    02/06/2014 22:22:18 3 3:23.0 14895-R5F1c- Bad Girlfriend Theory Of A Deadman
    02/06/2014 22:25:39 3 5:18.0 14397-R5F1a- Black Hole Sun Soundgarden
    02/06/2014 22:32:01 3 3:24.5 16132-R5F1c- Little Black Submarines Black Keys
    02/06/2014 22:36:30 3 4:07.0 14122-R5F1a- White Wedding Billy Idol
    02/06/2014 22:40:44 3 4:24.7 14767-R5F1c- Cold Hard Bitch Jet
    02/06/2014 22:45:17 3 4:08.1 16232-R5F1b- Leader Of The Broken Hearts Papa Roach
    02/06/2014 22:51:33 3 5:22.6 14270-R5F1b- Enter Sandman Metallica
    02/06/2014 22:56:48 3 4:19.0 14774-R5F1c- Boulevard Of Broken Dreams Green Day
    02/06/2014 23:04:25 3 3:34.9 16257-R5F1b- Never Never Korn
    02/06/2014 23:07:58 3 4:17.0 14416-R5F1a- Self Esteem Offspring
    02/06/2014 23:12:18 3 3:46.0 14764-R5F1c- Figured You Out Nickelback
    02/06/2014 23:20:09 3 4:25.0 14130-R5F1b- Pour Some Sugar On Me Def Leppard
    02/06/2014 23:24:33 3 3:27.0 14692-R5F1c- She Hates Me Puddle Of Mudd
    02/06/2014 23:29:14 3 3:50.8 16117-R5F1b- Burn It Down Linkin Park
    02/06/2014 23:34:07 3 4:09.0 14705-R5F1a- Twice As Hard Black Crowes
    02/06/2014 23:38:26 3 4:40.8 14601-R5F1c- Give It Away Red Hot Chili Peppers Blood, Sugar, Sex, Magik
    02/06/2014 23:43:11 3 4:04.9 15360-R5F1b- Rope Foo Fighters Wasting Light
    02/06/2014 23:49:25 3 4:04.9 14439-R5F1b- Comedown Bush
    02/06/2014 23:53:23 3 6:42.0 14675-R5F1c- Schism Tool

    posted by Paul Dickinson at 8:31 AM | Email Us
<< Home


Previous Posts
Copyright © 2016 CWBRadio.com | Privacy Policy | Terms of Use